TimeGMT,TemperatureF,Dew PointF,Humidity,Sea Level PressureIn,VisibilityMPH,Wind Direction,Wind SpeedMPH,Gust SpeedMPH,PrecipitationIn,Events,Conditions,WindDirDegrees,DateUTC
12:20 AM,46.4,42.8,87,29.71,6.2,SSW,8.1,-,N/A,,Scattered Clouds,200,2012-11-23 00:20:00
12:50 AM,46.4,42.8,87,29.71,6.2,SSW,9.2,-,N/A,,Scattered Clouds,200,2012-11-23 00:50:00
1:20 AM,46.4,42.8,87,29.71,6.2,SSW,10.4,-,N/A,,Partly Cloudy,210,2012-11-23 01:20:00
1:50 AM,44.6,42.8,93,29.71,6.2,SW,6.9,-,N/A,,Partly Cloudy,230,2012-11-23 01:50:00
2:50 AM,42,40,90,,,SW,5.8,,,,,230,2012-11-23 02:50:00
5:50 AM,39,39,98,,,ENE,2.3,,,,,70,2012-11-23 05:50:00
6:50 AM,39.2,37.4,93,29.80,-9999.0,Calm,Calm,-,N/A,,Clear,0,2012-11-23 06:50:00
7:20 AM,39.2,37.4,93,29.80,-9999.0,Calm,Calm,-,N/A,,Clear,0,2012-11-23 07:20:00
7:50 AM,39.2,37.4,93,29.83,-9999.0,Calm,Calm,-,N/A,,Clear,0,2012-11-23 07:50:00
8:20 AM,39.2,39.2,100,29.83,-9999.0,Calm,Calm,-,N/A,,Clear,0,2012-11-23 08:20:00
8:50 AM,40,40,98,,,North,1.2,,,,,10,2012-11-23 08:50:00
9:50 AM,42.8,41.0,93,29.86,6.2,Variable,2.3,-,N/A,,Partly Cloudy,0,2012-11-23 09:50:00
10:20 AM,44.6,44.6,100,29.89,6.2,Calm,Calm,-,N/A,,Partly Cloudy,0,2012-11-23 10:20:00
10:50 AM,46.4,46.4,100,29.89,6.2,Variable,1.2,-,N/A,,Partly Cloudy,0,2012-11-23 10:50:00
11:20 AM,48.2,46.4,93,29.89,6.2,Variable,1.2,-,N/A,,Partly Cloudy,0,2012-11-23 11:20:00
11:50 AM,52,44,68,,,South,3.5,,,,,190,2012-11-23 11:50:00
11:50 AM,50.0,44.6,82,29.89,6.2,Variable,3.5,-,N/A,,Partly Cloudy,0,2012-11-23 11:50:00
12:20 PM,51.8,44.6,76,29.89,6.2,Variable,2.3,-,N/A,,Partly Cloudy,0,2012-11-23 12:20:00
12:50 PM,51.8,44.6,76,29.89,6.2,SSW,5.8,-,N/A,,Partly Cloudy,210,2012-11-23 12:50:00
1:20 PM,51.8,44.6,76,29.89,6.2,SSW,6.9,-,N/A,,Partly Cloudy,210,2012-11-23 13:20:00
1:50 PM,51.8,44.6,76,29.89,6.2,SW,4.6,-,N/A,,Partly Cloudy,230,2012-11-23 13:50:00
2:20 PM,51.8,44.6,76,29.89,6.2,SSW,3.5,-,N/A,,Partly Cloudy,210,2012-11-23 14:20:00
2:50 PM,50,45,76,,,South,3.5,,,,,190,2012-11-23 14:50:00
2:50 PM,51.8,46.4,82,29.89,6.2,South,4.6,-,N/A,,Partly Cloudy,170,2012-11-23 14:50:00
3:20 PM,50.0,44.6,82,29.89,6.2,South,3.5,-,N/A,,Partly Cloudy,170,2012-11-23 15:20:00
3:50 PM,50.0,44.6,82,29.89,6.2,South,2.3,-,N/A,,Partly Cloudy,170,2012-11-23 15:50:00
4:20 PM,48.2,44.6,87,29.92,6.2,South,3.5,-,N/A,,Partly Cloudy,180,2012-11-23 16:20:00
4:50 PM,46.4,42.8,87,29.92,6.2,Variable,2.3,-,N/A,,Partly Cloudy,0,2012-11-23 16:50:00
5:20 PM,46.4,42.8,87,29.92,6.2,SSW,3.5,-,N/A,,Partly Cloudy,200,2012-11-23 17:20:00
5:50 PM,43,42,94,,,Calm,Calm,,,,,,2012-11-23 17:50:00
5:50 PM,44.6,42.8,93,29.92,6.2,Variable,1.2,-,N/A,,Partly Cloudy,0,2012-11-23 17:50:00
6:20 PM,42.8,42.8,100,29.95,6.2,NNW,1.2,-,N/A,,Partly Cloudy,330,2012-11-23 18:20:00
6:50 PM,42.8,41.0,93,29.95,6.2,East,1.2,-,N/A,,Partly Cloudy,90,2012-11-23 18:50:00
7:20 PM,41.0,41.0,100,29.95,6.2,Calm,Calm,-,N/A,,Partly Cloudy,0,2012-11-23 19:20:00
7:50 PM,39.2,37.4,93,29.95,6.2,Calm,Calm,-,N/A,,Partly Cloudy,0,2012-11-23 19:50:00
8:20 PM,39.2,37.4,93,29.95,6.2,Calm,Calm,-,N/A,,Partly Cloudy,0,2012-11-23 20:20:00
8:50 PM,36,36,99,,,ENE,1.2,,,,,70,2012-11-23 20:50:00
8:50 PM,37.4,37.4,100,29.95,6.2,Calm,Calm,-,N/A,,Partly Cloudy,0,2012-11-23 20:50:00
9:20 PM,37.4,37.4,100,29.95,6.2,North,1.2,-,N/A,,Partly Cloudy,350,2012-11-23 21:20:00
9:50 PM,35.6,35.6,100,29.98,6.2,ENE,1.2,-,N/A,,Partly Cloudy,60,2012-11-23 21:50:00
10:20 PM,35.6,35.6,100,29.98,6.2,North,1.2,-,N/A,Fog,Shallow Fog,10,2012-11-23 22:20:00
10:50 PM,35.6,35.6,100,29.98,6.2,North,2.3,-,N/A,Fog,Shallow Fog,350,2012-11-23 22:50:00
11:20 PM,35.6,35.6,100,29.98,6.2,NNE,2.3,-,N/A,,Partly Cloudy,20,2012-11-23 23:20:00
11:50 PM,34,34,98,,,Calm,Calm,,,,,,2012-11-23 23:50:00